This is the latest recevied weather packets stored in our database for station/object OK1KZE-6. If no packets are shown the sender has not sent any weather packets the latest 1 day(s).
| Time | Temp. | Humidity | Pressure | Rain* | Wind** | Luminosity | Snow |
|---|---|---|---|---|---|---|---|
| 1778005507 | -1.11° C | 100% | 1006.4 hPa | - | 0 m/s | - | - |
| 1778005208 | 17.78° C | 62% | 1006.4 hPa | - | 10.28 m/s, 98° | - | - |
| 1778004908 | 17.78° C | 62% | 1006.1 hPa | - | 10.28 m/s, 98° | - | - |
| 1778004608 | 17.78° C | 61% | 1006.4 hPa | - | 9.83 m/s, 94° | - | - |
| 1778004307 | 17.78° C | 61% | 1006.4 hPa | - | 9.39 m/s, 95° | - | - |
| 1778004007 | 17.78° C | 61% | 1006.5 hPa | - | 10.28 m/s, 103° | - | - |
| 1778003707 | 17.78° C | 61% | 1006.7 hPa | - | 9.83 m/s, 101° | - | - |
| 1778003407 | 17.78° C | 60% | 1006.7 hPa | - | 10.28 m/s, 107° | - | - |
| 1778003107 | 17.78° C | 61% | 1006.7 hPa | - | 10.28 m/s, 102° | - | - |
| 1778002807 | 17.78° C | 62% | 1007 hPa | - | 8.94 m/s, 109° | - | - |
| 1778002508 | 17.78° C | 61% | 1007 hPa | - | 10.73 m/s, 107° | - | - |
| 1778001908 | 17.78° C | 61% | 1006.9 hPa | - | 13.41 m/s, 108° | - | - |
| 1778001607 | 17.78° C | 61% | 1007.2 hPa | - | 12.52 m/s, 108° | - | - |
| 1778001307 | 18.33° C | 61% | 1007.3 hPa | - | 14.75 m/s, 113° | - | - |
| 1778001008 | 18.33° C | 62% | 1007.1 hPa | - | 12.07 m/s, 109° | - | - |
| 1778000707 | 18.33° C | 62% | 1007.4 hPa | - | 12.07 m/s, 106° | - | - |
| 1778000407 | 18.33° C | 61% | 1007.4 hPa | - | 12.96 m/s, 112° | - | - |
| 1778000108 | 18.33° C | 60% | 1007.5 hPa | - | 11.62 m/s, 117° | - | - |
| 1777999807 | 18.33° C | 61% | 1007.5 hPa | - | 11.18 m/s, 106° | - | - |
| 1777999508 | 18.33° C | 62% | 1007.9 hPa | - | 13.86 m/s, 114° | - | - |
| 1777999207 | 18.89° C | 61% | 1007.8 hPa | - | 11.18 m/s, 113° | - | - |
| 1777998908 | 18.89° C | 62% | 1007.7 hPa | - | 9.83 m/s, 111° | - | - |
| 1777998608 | 18.89° C | 61% | 1007.6 hPa | - | 10.73 m/s, 114° | - | - |
| 1777998308 | 18.89° C | 59% | 1007.5 hPa | - | 11.18 m/s, 116° | - | - |
| 1777998006 | 19.44° C | 56% | 1007.7 hPa | - | 13.86 m/s, 114° | - | - |
* Rain since midnight (hover to see other rain measurements)
** Current wind speed in m/s (hover to see current wind gust speed)